Lid_Strength_Index
2 2 1 -0 -0 -1 -0 2 0 -0 -0 0 0 0 1 3 2 3 3 0 -2 -2 -2 -2 -2 -2 -2 -2 -2 -2 -1 -1 -1 -1 -1 -1 -1 -1 -1 -1 -1 -1 -1
1 0 0 0 -0 -0 -0 0 -0 0 0 -0 0 1 2 3 3 4 5 4 -0 -1 -2 -2 -2 -2 -2 -2 -2 -2 -1 -1 -1 -1 -1 -1 -1 -1 -1 -1 -1 -1 -0
1 2 3 2 1 0 -0 -0 -0 0 0 0 1 0 2 2 2 2 3 4 4 1 -2 -2 -2 -2 -2 -2 -2 -2 -2 -1 -1 -1 -1 -1 -1 -1 -1 -1 -0 0 0
2 0 0 0 -0 -0 -0 0 0 1 1 1 1 1 2 2 2 3 3 4 5 5 3 -1 -2 -2 -2 -2 -2 -2 -2 -1 -1 -1 -1 -1 -1 -1 -1 -1 -1 -1 -1
4 4 3 3 2 1 2 1 1 1 2 2 1 1 2 2 2 2 3 4 4 4 5 2 -0 -2 -2 -1 -2 -2 -2 -2 -2 -2 -1 -1 -1 -1 -1 -1 -1 -1 -1
6 6 5 6 5 4 4 4 4 2 2 2 2 2 2 2 2 2 2 1 2 3 3 2 2 -0 -1 -1 -1 -1 -1 -1 -1 -1 -2 -1 -1 -1 -1 -1 -1 -1 -1
6 7 6 6 6 5 4 4 3 3 2 3 2 3 3 2 3 3 2 3 2 2 3 3 2 2 2 -1 -1 -1 -1 -1 -1 -1 -1 -1 -1 -1 -1 -1 -1 -1 -1
6 6 7 7 7 7 7 6 5 4 3 2 3 4 6 4 3 2 2 2 4 3 2 2 2 2 2 2 1 0 -0 -1 -1 -1 -1 -1 -1 -1 -1 -1 -1 -1 -1
6 6 7 7 8 8 7 7 6 6 5 3 2 3 6 7 4 3 3 3 3 3 3 2 2 2 2 2 1 1 -0 -1 -0 -1 -1 -1 -1 -2 -1 -1 -1 -1 -1
8 7 6 7 8 8 8 8 6 7 6 6 4 1 2 2 6 6 3 3 3 3 4 3 3 2 2 3 2 1 1 0 -1 -1 -1 -1 -1 -1 -1 -1 -1 -1 -1
7 7 7 7 8 8 8 7 7 7 7 7 6 5 4 4 3 4 6 4 3 3 2 2 3 4 3 3 3 1 -0 -1 -1 -1 -0 0 -0 -0 -1 -1 -1 -0 -1
8 8 7 7 7 7 7 7 6 7 6 7 6 6 6 5 6 5 5 5 4 4 4 3 3 2 2 3 1 0 -0 -0 -1 -0 1 1 0 0 0 0 -0 -1 -2
9 7 7 7 7 6 6 6 6 6 6 6 7 7 6 5 4 4 4 5 5 5 5 6 5 4 3 5 4 1 -0 0 -0 -0 -0 -0 0 0 0 1 -0 -1 -1
8 7 6 6 6 5 4 4 3 3 3 3 3 4 4 3 2 3 4 5 6 7 6 7 5 4 5 5 3 1 4 1 1 0 0 -0 -0 0 0 0 1 1 1
6 6 6 6 6 5 5 5 4 3 3 3 4 4 3 3 3 2 2 3 5 7 6 5 5 4 6 6 5 4 5 2 1 1 0 0 -0 0 1 1 1 2 2
7 7 7 6 6 6 6 6 6 5 6 6 6 6 5 5 5 6 5 5 5 6 8 6 6 7 7 6 5 4 4 2 2 2 1 1 1 1 1 1 2 1 1
6 5 6 6 6 6 6 7 6 6 7 8 8 8 8 8 8 8 8 8 8 8 9 8 8 6 7 7 6 6 5 6 5 3 2 1 1 1 1 1 1 1 1
5 5 6 7 7 7 7 7 7 7 7 8 8 7 7 6 8 8 8 9 9 8 7 9 8 7 7 6 6 7 6 5 6 4 2 2 1 2 2 2 2 2 2
7 6 7 8 8 8 8 7 7 7 7 7 7 7 6 6 7 7 7 7 7 6 7 7 8 7 6 6 7 7 7 7 5 3 3 3 2 2 2 2 3 3 2
7 7 8 9 9 9 9 8 7 7 7 8 7 6 5 5 6 6 6 7 7 7 7 8 6 5 7 7 7 8 7 8 8 6 4 4 3 3 3 3 3 3 2
8 8 9 10 10 10 8 8 8 7 7 8 7 6 5 3 2 2 4 5 6 7 7 7 7 5 7 8 8 8 9 9 9 9 8 6 6 7 7 5 4 3 3
8 9 9 10 11 10 7 6 7 7 6 7 7 6 6 4 4 2 2 1 2 5 6 7 7 8 7 7 8 8 8 7 8 8 8 8 6 7 7 8 5 5 5
9 9 10 11 11 11 7 7 5 7 6 7 6 6 5 5 4 5 4 3 3 2 2 5 7 7 7 7 7 8 8 8 7 7 8 7 6 8 8 7 6 5 5
9 9 11 11 12 11 7 7 6 9 8 7 6 6 6 6 6 4 6 6 6 6 5 4 6 6 6 6 7 5 6 5 7 7 6 7 7 9 9 9 5 4 4
10 10 11 12 12 12 8 7 8 9 8 7 6 6 5 6 4 4 5 7 7 6 4 2 3 3 4 4 3 6 8 7 7 9 6 6 7 9 10 8 5 4 4
9 9 10 11 9 12 8 7 7 8 9 7 7 6 3 4 4 4 6 7 7 7 7 6 6 6 5 5 4 7 5 7 7 8 5 9 9 9 9 7 7 6 7